Starlink 30074

operational
NORAD ID: 57508 Int'l Des: 2023-113 Owner: SPXS Country: US Constellation: starlink
LEOCIRCULAR

About Starlink 30074

Description loading...

Live Position

Loading 3D Globe...

Upcoming Passes

Altitude History

Altitude vs Time

uPlot chart will show altitude changes over time

Two-Line Element Set

1 57508U 23113P 25307.78852698 .00000437 00000-0 47427-4 0 9997
2 57508 43.0047 341.2475 0001217 268.8111 91.2591 15.02536999124518
Epoch: Nov 3, 2025 • Age: 10 hours

Current Status

Altitude 561.7 km
Velocity 7.59 km/s
Sub-Earth Point 36.85°N, 13.16°W
Launch Date Aug 7, 2023
Age 2.2 years
Type internet

Technical Details

Classification Payload
Mass 730.00 kg
Dry Mass 700.00 kg
Total Mass 730.00 kg
Length 0.30 m
Diameter 4.10 m
Span 29.00 m
Shape Box + pan
Manufacturer SPXS
Bus Type Starlink V2M
Phase Status In Orbit
Owner/State SPXS/US

Large Constellations

Loading constellations...